[[{"header":{"parameterUnit":"m.s-1","parameterCategory":1,"la1":30.2991,"la2":30.254,"lo1":-89.0895,"lo2":-89.0444,"dy":0.0017,"dx":0.0017,"nx":28,"ny":28,"refTime":"2024-08-04T03:00:00:Z","depth":0,"parameterNumber":2,"parameterNumberName":"U-component_of_WINDS"},"data":[0,0,0,0,0,0,0,0,0,0,0,0,0,0,0,0,0,0,0,0,0,0,0,0,0,0,0,0,0,0,0,0,0,0,0,0,0,0,0,0,0,0,0,0,0,0,0,0,0,0,0,0,0,0,0,0,0,0,-0.8389,-0.8391,0,-0.849,-0.8491,-0.8492,-0.8528,-0.8528,-0.8527,-0.8527,-0.8629,-0.8632,-0.8635,0,0,0,0,0,0,0,0,0,0,0,0,0,-0.823,-0.8233,-0.8389,-0.8391,-0.8392,-0.849,-0.8491,-0.8493,-0.8528,-0.8528,-0.8527,-0.8527,-0.8628,-0.8632,-0.8636,0,0,0,0,0,0,0,0,0,0,0,0,0,-0.8312,-0.8234,-0.8389,-0.8421,-0.8425,-0.849,-0.8491,-0.8493,-0.8528,-0.8528,-0.8527,-0.8527,-0.8627,-0.8632,-0.8636,-0.8676,0,0,-0.865,-0.8652,0,0,0,0,0,0,0,0,-0.8307,-0.8317,-0.8415,-0.8419,-0.8424,-0.8496,-0.8473,-0.8554,-0.8528,-0.8489,-0.8527,-0.8526,-0.8585,-0.8593,-0.8613,-0.868,-0.8685,-0.8651,-0.8653,-0.8655,-0.8657,0,0,0,0,0,0,0,-0.8301,-0.8313,-0.8429,-0.8417,-0.8422,-0.8432,-0.8443,-0.8488,-0.8539,-0.8492,-0.8495,-0.8507,-0.8588,-0.8609,-0.8616,-0.8686,-0.8651,-0.8655,-0.8657,-0.8659,-0.8794,-0.8795,0,0,0,0,0,0,-0.829,-0.8308,-0.8426,-0.8432,-0.8363,-0.8435,-0.8447,-0.8473,-0.8539,-0.8548,-0.8507,-0.8508,-0.8601,-0.8611,-0.862,-0.8672,-0.8655,-0.866,-0.8662,-0.8793,-0.8794,-0.8795,0,0,0,0,0,0,-0.8287,-0.83,-0.8422,-0.8371,-0.8387,-0.8438,-0.8467,-0.8476,-0.8497,-0.855,-0.8559,-0.8519,-0.8601,-0.8613,-0.8662,-0.8676,-0.8662,-0.8666,-0.8792,-0.8793,-0.8794,-0.8776,0,0,0,0,0,0,-0.8282,-0.8299,-0.8313,-0.8371,-0.839,-0.8462,-0.8468,-0.8478,-0.8505,-0.8507,-0.8564,-0.8573,-0.8602,-0.8655,-0.8667,-0.8682,-0.867,-0.8791,-0.8793,-0.8794,-0.8775,-0.8776,-0.8777,0,0,0,0,0,-0.8276,-0.8303,-0.8314,-0.8328,-0.8409,-0.8463,-0.8473,-0.8506,-0.8506,-0.8522,-0.8556,-0.8571,-0.8673,-0.866,-0.8673,-0.869,-0.879,-0.8792,-0.8794,-0.8775,-0.8776,-0.8777,0,0,0,0,0,0,-0.8245,-0.8311,-0.8324,-0.8371,-0.8411,-0.8468,-0.8489,-0.8506,-0.8547,-0.8547,-0.8586,-0.8599,-0.8645,-0.8673,-0.8657,-0.8733,-0.8733,-0.8737,-0.8714,-0.8715,-0.8716,-0.8708,-0.8673,0,0,0,0,0,-0.8244,-0.8281,-0.8337,-0.8373,-0.8393,-0.8438,-0.8462,-0.8484,-0.8527,-0.8544,-0.8582,-0.8623,-0.8665,-0.8692,-0.8733,-0.878,-0.8794,-0.8798,-0.8799,-0.88,-0.8803,-0.8833,-0.8836,-0.8801,-0.8801,-0.8801,0,0,-0.8241,-0.8282,-0.8303,-0.8368,-0.8402,-0.8441,-0.8451,-0.8491,-0.8521,-0.855,-0.8599,-0.8629,-0.8678,-0.8726,-0.875,-0.8751,-0.8816,-0.8802,-0.8802,-0.8805,-0.8835,-0.8838,-0.8841,-0.8802,-0.8802,-0.8802,0,0,-0.8257,-0.8291,-0.8326,-0.836,-0.8411,-0.8441,-0.845,-0.8506,-0.8527,-0.8577,-0.8601,-0.8637,-0.8707,-0.8742,-0.8768,-0.8801,-0.8816,-0.8813,-0.8817,-0.8845,-0.8848,-0.8851,-0.8864,-0.8868,-0.8816,-0.8816,-0.8816,0,-0.8247,-0.8306,-0.8341,-0.8381,-0.841,-0.844,-0.8476,-0.8508,-0.8569,-0.8589,-0.859,-0.8681,-0.8715,-0.8774,-0.8782,-0.8802,-0.8814,-0.8806,-0.8845,-0.8848,-0.8851,-0.8864,-0.8868,-0.8816,-0.8816,-0.8816,-0.8816,0,-0.8292,-0.8333,-0.8355,-0.8415,-0.8447,-0.8484,-0.8527,-0.8554,-0.8575,-0.8605,-0.8657,-0.8701,-0.8752,-0.8768,-0.8788,-0.883,-0.883,-0.8837,-0.8837,-0.8853,-0.8866,-0.8871,-0.8815,-0.8815,-0.8815,-0.8815,0,0,-0.8288,-0.8371,-0.8378,-0.8407,-0.8467,-0.85,-0.854,-0.8591,-0.8615,-0.8658,-0.8693,-0.8754,-0.8762,-0.8792,-0.8817,-0.8841,-0.8867,-0.8846,-0.8848,-0.8849,-0.8919,-0.8913,-0.8918,-0.8878,-0.8879,-0.888,-0.8915,0,-0.8312,-0.8385,-0.842,-0.8478,-0.8517,-0.8548,-0.8583,-0.8625,-0.8655,-0.8694,-0.8727,-0.877,-0.8777,-0.8796,-0.8822,-0.8858,-0.8881,-0.8856,-0.8912,-0.8914,-0.8899,-0.8925,-0.8918,-0.8949,-0.892,-0.8921,-0.8922,0,-0.8349,-0.8393,-0.8455,-0.8514,-0.8532,-0.8563,-0.8614,-0.865,-0.8699,-0.8719,-0.8755,-0.8779,-0.8824,-0.8822,-0.8885,-0.8867,-0.8892,-0.8914,-0.8916,-0.8923,-0.8918,-0.8933,-0.896,-0.8965,-0.893,-0.8929,-0.8928,0,-0.8342,-0.8417,-0.8464,-0.8488,-0.8557,-0.8579,-0.8608,-0.8657,-0.8686,-0.8731,-0.8751,-0.8801,-0.8828,-0.8866,-0.8904,-0.8898,-0.8964,-0.8964,-0.8984,-0.8983,-0.8996,-0.8994,-0.9028,-0.9011,-0.9011,-0.9011,-0.9011,0,-0.8365,-0.8402,-0.8462,-0.8491,-0.8535,-0.8575,-0.8617,-0.8649,-0.8693,-0.873,-0.8759,-0.8793,-0.8841,-0.8881,-0.8911,-0.896,-0.8972,-0.8991,-0.8998,-0.8988,-0.8986,-0.9005,-0.9004,-0.9012,-0.9012,-0.9012,-0.9012,0,-0.8364,-0.8405,-0.8459,-0.8521,-0.8538,-0.8567,-0.8621,-0.8651,-0.8684,-0.8731,-0.8744,-0.8796,-0.8845,-0.8887,-0.8951,-0.8972,-0.9023,-0.9032,-0.9007,-0.9011,-0.9028,-0.9026,-0.9076,-0.9085,-0.9061,-0.9061,-0.9061,0,-0.8376,-0.8405,-0.8471,-0.8499,-0.8528,-0.8571,-0.8602,-0.8645,-0.8676,-0.8735,-0.8759,-0.8811,-0.8855,-0.8933,-0.8976,-0.9027,-0.9037,-0.9051,-0.9045,-0.9035,-0.9039,-0.9037,-0.9041,-0.9051,-0.9052,-0.9052,-0.9052,0,-0.8393,-0.8413,-0.8457,-0.8508,-0.8545,-0.8587,-0.8631,-0.8651,-0.8702,-0.8736,-0.8788,-0.8822,-0.8889,-0.8941,-0.8997,-0.9029,-0.9049,-0.9054,-0.9061,-0.9051,-0.9036,-0.9046,-0.9009,-0.9052,-0.9052,-0.9052,-0.9052,-0.9052,-0.84,-0.8428,-0.848,-0.8528,-0.8566,-0.8607,-0.8639,-0.8677,-0.8721,-0.8779,-0.8802,-0.8855,-0.8906,-0.8983,-0.9016,-0.9059,-0.9061,-0.9071,-0.9074,-0.9076,-0.9075,-0.9029,-0.9069,-0.9069,-0.9069,-0.9069,-0.9069,0,-0.842,-0.8455,-0.8499,-0.856,-0.8599,-0.8616,-0.8665,-0.8697,-0.8743,-0.8789,-0.8833,-0.8893,-0.8945,-0.8994,-0.9048,-0.9073,-0.9084,-0.9086,-0.9084,-0.9092,-0.9069,-0.9058,-0.9076,-0.9076,-0.9076,-0.9076,-0.9076,-0.9076,-0.8434,-0.8485,-0.8511,-0.8581,-0.8617,-0.8669,-0.8697,-0.8735,-0.8772,-0.8839,-0.8882,-0.8914,-0.8962,-0.902,-0.9069,-0.9082,-0.9101,-0.9101,-0.9116,-0.9094,-0.9093,-0.9092,-0.9081,-0.9104,-0.9104,-0.9135,-0.9136,-0.9136]},{"header":{"parameterUnit":"m.s-1","parameterCategory":1,"la1":30.2991,"la2":30.254,"lo1":-89.0895,"lo2":-89.0444,"dy":0.0017,"dx":0.0017,"nx":28,"ny":28,"refTime":"2024-08-04T03:00:00:Z","depth":0,"parameterNumber":3,"parameterNumberName":"V-component_of_WINDS"},"data":[0,0,0,0,0,0,0,0,0,0,0,0,0,0,0,0,0,0,0,0,0,0,0,0,0,0,0,0,0,0,0,0,0,0,0,0,0,0,0,0,0,0,0,0,0,0,0,0,0,0,0,0,0,0,0,0,0,0,1.0515,1.0516,0,1.0622,1.0623,1.0624,1.0688,1.0688,1.0689,1.0689,1.0792,1.0794,1.0797,0,0,0,0,0,0,0,0,0,0,0,0,0,1.0359,1.0361,1.0515,1.0516,1.0518,1.0622,1.0623,1.0624,1.0688,1.0688,1.0689,1.0689,1.0791,1.0794,1.0797,0,0,0,0,0,0,0,0,0,0,0,0,0,1.0442,1.0362,1.0515,1.0562,1.0567,1.0621,1.0623,1.0625,1.0688,1.0688,1.0689,1.0689,1.079,1.0794,1.0798,1.0811,0,0,1.0809,1.081,0,0,0,0,0,0,0,0,1.0437,1.0448,1.0554,1.0559,1.0565,1.0642,1.0606,1.0687,1.0688,1.0642,1.0689,1.0689,1.0741,1.0749,1.0768,1.0816,1.082,1.0809,1.0811,1.0813,1.0814,0,0,0,0,0,0,0,1.0431,1.0443,1.0557,1.0555,1.0562,1.0575,1.0588,1.0622,1.0687,1.0646,1.0651,1.0663,1.0744,1.0764,1.0771,1.0822,1.0809,1.0812,1.0815,1.0816,1.0883,1.0883,0,0,0,0,0,0,1.0419,1.0438,1.0554,1.056,1.0501,1.0578,1.0592,1.0617,1.0687,1.0699,1.0662,1.0665,1.0758,1.0766,1.0775,1.0794,1.0813,1.0816,1.0819,1.0884,1.0883,1.0883,0,0,0,0,0,0,1.0415,1.0429,1.0549,1.0501,1.0517,1.058,1.0608,1.0619,1.0639,1.07,1.0711,1.0671,1.0758,1.077,1.0801,1.0798,1.0818,1.0821,1.0884,1.0883,1.0883,1.0832,0,0,0,0,0,0,1.0411,1.0427,1.0435,1.05,1.0519,1.0576,1.0608,1.062,1.0645,1.065,1.0711,1.0721,1.076,1.0796,1.0805,1.0804,1.0824,1.0885,1.0884,1.0883,1.0835,1.083,1.0826,0,0,0,0,0,1.0405,1.0416,1.0435,1.0448,1.0531,1.0576,1.0587,1.0632,1.0645,1.0652,1.0691,1.0719,1.0797,1.0798,1.0809,1.0809,1.0885,1.0884,1.0883,1.0837,1.0831,1.0826,0,0,0,0,0,0,1.0347,1.0425,1.0447,1.048,1.0521,1.0587,1.0597,1.0625,1.0662,1.0665,1.0718,1.0731,1.0757,1.0786,1.0786,1.0824,1.0844,1.0845,1.0805,1.08,1.0796,1.0788,1.0827,0,0,0,0,0,1.0338,1.037,1.0436,1.0458,1.0478,1.0534,1.0555,1.0587,1.0631,1.0648,1.0689,1.0729,1.0762,1.0783,1.0817,1.0839,1.0852,1.0844,1.084,1.0836,1.0836,1.0848,1.0845,1.0879,1.0879,1.0879,0,0,1.0319,1.0366,1.0383,1.0448,1.0484,1.0513,1.0548,1.0579,1.0601,1.0652,1.0685,1.0716,1.0763,1.079,1.0804,1.0815,1.0829,1.0835,1.0831,1.0834,1.0847,1.0843,1.084,1.0879,1.0879,1.0879,0,0,1.0301,1.0341,1.0363,1.0398,1.0451,1.0488,1.0493,1.0554,1.0578,1.0612,1.065,1.0675,1.0732,1.0764,1.0787,1.0778,1.0805,1.0788,1.0766,1.0776,1.0774,1.0771,1.0766,1.0764,1.0788,1.0788,1.0788,0,1.0271,1.032,1.037,1.0399,1.0425,1.0474,1.0495,1.0525,1.0586,1.0602,1.0614,1.0685,1.072,1.0754,1.0752,1.077,1.0775,1.0781,1.077,1.0769,1.0767,1.0763,1.0761,1.0785,1.0785,1.0786,1.0786,0,1.028,1.0313,1.0324,1.0383,1.041,1.0434,1.0486,1.0507,1.0535,1.0569,1.0601,1.0646,1.0688,1.0699,1.0726,1.0735,1.0741,1.0761,1.0781,1.0761,1.0757,1.0756,1.0781,1.0782,1.0783,1.0784,0,0,1.0229,1.0315,1.0318,1.0344,1.0406,1.0431,1.0456,1.05,1.0515,1.0555,1.0576,1.0622,1.064,1.0667,1.0698,1.0707,1.0695,1.0726,1.0728,1.0718,1.0705,1.0689,1.0686,1.0713,1.0713,1.0713,1.0701,0,1.0219,1.027,1.0314,1.0347,1.0376,1.0422,1.0443,1.0482,1.0514,1.0541,1.0576,1.0607,1.063,1.0646,1.0658,1.0694,1.0693,1.0696,1.0731,1.0731,1.0717,1.0685,1.0669,1.0655,1.07,1.07,1.07,0,1.0215,1.0254,1.029,1.0347,1.0361,1.038,1.0422,1.0448,1.0492,1.0514,1.0543,1.0575,1.0601,1.0619,1.0653,1.0654,1.0671,1.069,1.0691,1.0695,1.0714,1.0687,1.0652,1.0649,1.0699,1.0699,1.0699,0,1.0173,1.0234,1.0263,1.0284,1.0351,1.0363,1.0391,1.0435,1.0458,1.0493,1.0508,1.0546,1.0566,1.0593,1.0634,1.0643,1.0663,1.0685,1.068,1.0679,1.0682,1.0681,1.0648,1.0694,1.0694,1.0694,1.0694,0,1.0157,1.0177,1.0245,1.0262,1.0285,1.0334,1.0354,1.0386,1.0424,1.0447,1.0488,1.0507,1.0561,1.0586,1.0618,1.064,1.0649,1.0666,1.0674,1.0662,1.066,1.0673,1.0675,1.0694,1.0694,1.0694,1.0694,0,1.0114,1.016,1.0195,1.0255,1.0271,1.0284,1.0335,1.0352,1.0386,1.0414,1.0423,1.0475,1.0507,1.0551,1.0595,1.0616,1.0634,1.0648,1.062,1.0625,1.0617,1.0617,1.059,1.0588,1.0637,1.0636,1.0636,0,1.01,1.0117,1.0179,1.0198,1.0225,1.0255,1.0278,1.0326,1.0348,1.0397,1.0407,1.0443,1.0473,1.0521,1.0562,1.0595,1.0609,1.0597,1.0614,1.0601,1.0607,1.0605,1.0606,1.0593,1.0592,1.0592,1.0591,0,1.0071,1.0093,1.0126,1.0166,1.0192,1.0226,1.0261,1.0273,1.0328,1.035,1.0384,1.0407,1.0453,1.0486,1.0525,1.0551,1.0579,1.0585,1.0586,1.0573,1.0556,1.0564,1.0608,1.0586,1.0586,1.0587,1.0587,1.0587,1.0042,1.0057,1.0103,1.0137,1.0169,1.02,1.0219,1.0255,1.0285,1.0327,1.0352,1.0384,1.0424,1.0479,1.0504,1.0527,1.0539,1.054,1.054,1.0539,1.0534,1.0553,1.0535,1.0535,1.0535,1.0535,1.0535,0,1.0013,1.0044,1.0076,1.0124,1.015,1.0175,1.0215,1.0234,1.0262,1.0298,1.0327,1.0364,1.0396,1.0438,1.0473,1.0483,1.0496,1.049,1.0489,1.0494,1.0523,1.0519,1.0479,1.0479,1.0479,1.0479,1.0479,1.0479,1.0001,1.0029,1.0055,1.0097,1.0128,1.0161,1.0181,1.0209,1.0237,1.0277,1.0305,1.0333,1.037,1.0407,1.0436,1.0448,1.0458,1.0447,1.0462,1.0488,1.0493,1.0498,1.0494,1.0449,1.0449,1.0431,1.0431,1.0431]}]]